• In Hungary
  • List of Countries
  • For 7 days
  • Water Temperature
  • Satellite Maps
  • Weather Map
  • News
  • Weather Widgets
  • user-avatar
    Login

    Hourly Weather Summit

    Today, 17 January, Wednesday

    Time Temperature Precipitation Wind Pressure Humidity
    00:00 +1°C° 0.3 mm 1 mps 763 mmHg 96%
    01:00 +1°C° 0 mm 1 mps 762 mmHg 95%
    02:00 +1°C° 0.5 mm 1 mps 762 mmHg 96%
    03:00 +1°C° 0.5 mm 1 mps 762 mmHg 96%
    04:00 -1°C° 0.5 mm 2 mps 761 mmHg 96%
    05:00 -1°C° 0.4 mm 2 mps 761 mmHg 95%
    06:00 -1°C° 0.4 mm 2 mps 761 mmHg 93%
    07:00 -2°C° 0 mm 2 mps 762 mmHg 92%
    08:00 -2°C° 0.7 mm 3 mps 762 mmHg 91%
    09:00 -2°C° 0.7 mm 3 mps 762 mmHg 90%
    10:00 -3°C° 0.7 mm 4 mps 762 mmHg 89%
    11:00 -3°C° 0.2 mm 4 mps 762 mmHg 85%
    12:00 -4°C° 0.2 mm 4 mps 761 mmHg 81%
    13:00 -5°C° 0.2 mm 5 mps 761 mmHg 78%
    14:00 -5°C° 0 mm 5 mps 760 mmHg 76%
    15:00 -6°C° 0 mm 5 mps 760 mmHg 74%
    16:00 -6°C° 0 mm 5 mps 760 mmHg 72%
    17:00 -7°C° 0 mm 5 mps 760 mmHg 71%
    18:00 -8°C° 0 mm 5 mps 760 mmHg 71%
    19:00 -10°C° 0 mm 5 mps 760 mmHg 70%
    20:00 -11°C° 0 mm 5 mps 760 mmHg 72%
    21:00 -10°C° 0 mm 4 mps 760 mmHg 73%
    22:00 -11°C° 0 mm 4 mps 760 mmHg 75%
    23:00 -11°C° 0 mm 4 mps 759 mmHg 76%

    Tomorrow, 18 January, Thursday

    Time Temperature Precipitation Wind Pressure Humidity
    00:00 -11°C° 0 mm 4 mps 759 mmHg 77%
    01:00 -10°C° 0 mm 3 mps 758 mmHg 78%
    02:00 -12°C° 0 mm 4 mps 758 mmHg 78%
    03:00 -12°C° 0 mm 4 mps 757 mmHg 77%
    04:00 -12°C° 0 mm 4 mps 757 mmHg 77%
    05:00 -12°C° 0 mm 4 mps 757 mmHg 77%
    06:00 -12°C° 0 mm 4 mps 757 mmHg 77%
    07:00 -12°C° 0 mm 4 mps 756 mmHg 77%
    08:00 -11°C° 0 mm 4 mps 756 mmHg 73%
    09:00 -9°C° 0 mm 4 mps 756 mmHg 69%
    10:00 -8°C° 0 mm 4 mps 756 mmHg 65%
    11:00 -7°C° 0 mm 4 mps 756 mmHg 63%
    12:00 -6°C° 0 mm 5 mps 755 mmHg 62%
    13:00 -5°C° 0 mm 5 mps 754 mmHg 61%
    14:00 -5°C° 0 mm 5 mps 754 mmHg 63%
    15:00 -5°C° 0 mm 5 mps 754 mmHg 66%
    16:00 -5°C° 0 mm 5 mps 754 mmHg 68%
    17:00 -6°C° 0 mm 5 mps 755 mmHg 71%
    18:00 -7°C° 0 mm 4 mps 755 mmHg 74%
    19:00 -8°C° 0 mm 4 mps 756 mmHg 78%
    20:00 -8°C° 0 mm 4 mps 756 mmHg 79%
    21:00 -7°C° 0 mm 3 mps 756 mmHg 80%
    22:00 -7°C° 0 mm 3 mps 757 mmHg 82%
    23:00 -8°C° 0 mm 3 mps 757 mmHg 82%

    Day after tomorrow, 19 January, Friday

    Time Temperature Precipitation Wind Pressure Humidity
    00:00 -8°C° 0 mm 3 mps 756 mmHg 83%
    01:00 -8°C° 0 mm 3 mps 756 mmHg 83%
    02:00 -8°C° 0 mm 3 mps 756 mmHg 83%
    03:00 -8°C° 0 mm 3 mps 756 mmHg 83%
    04:00 -8°C° 0 mm 3 mps 756 mmHg 83%
    05:00 -8°C° 0 mm 3 mps 756 mmHg 83%
    06:00 -8°C° 0 mm 3 mps 756 mmHg 83%
    07:00 -8°C° 0 mm 3 mps 757 mmHg 83%
    08:00 -7°C° 0 mm 3 mps 757 mmHg 79%
    09:00 -7°C° 0 mm 4 mps 757 mmHg 75%
    10:00 -5°C° 0 mm 4 mps 757 mmHg 71%
    11:00 -4°C° 0 mm 4 mps 757 mmHg 70%
    12:00 -3°C° 0 mm 4 mps 757 mmHg 68%
    13:00 -2°C° 0 mm 4 mps 756 mmHg 67%
    14:00 -1°C° 0 mm 3 mps 756 mmHg 69%
    15:00 -1°C° 0 mm 3 mps 756 mmHg 71%
    16:00 -1°C° 0 mm 3 mps 756 mmHg 73%
    17:00 -2°C° 0 mm 3 mps 756 mmHg 78%
    18:00 -4°C° 0 mm 3 mps 757 mmHg 82%
    19:00 -5°C° 0 mm 3 mps 757 mmHg 86%
    20:00 -5°C° 0 mm 3 mps 757 mmHg 86%
    21:00 -5°C° 0 mm 3 mps 757 mmHg 86%
    22:00 -5°C° 0 mm 3 mps 757 mmHg 86%
    23:00 -5°C° 0 mm 3 mps 757 mmHg 85%

    20 January, Saturday

    Time Temperature Precipitation Wind Pressure Humidity
    00:00 -5°C° 0 mm 3 mps 757 mmHg 85%
    01:00 -5°C° 0 mm 3 mps 756 mmHg 84%
    02:00 -4°C° 0 mm 3 mps 756 mmHg 82%
    03:00 -4°C° 0 mm 3 mps 756 mmHg 80%
    04:00 -4°C° 0 mm 4 mps 756 mmHg 79%
    05:00 -4°C° 0 mm 4 mps 756 mmHg 77%
    06:00 -3°C° 0 mm 4 mps 756 mmHg 76%
    07:00 -3°C° 0 mm 4 mps 756 mmHg 74%
    08:00 -2°C° 0 mm 5 mps 756 mmHg 69%
    09:00 0°C° 0 mm 5 mps 756 mmHg 65%
    10:00 +1°C° 0 mm 5 mps 756 mmHg 60%
    11:00 +2°C° 0 mm 5 mps 755 mmHg 60%
    12:00 +3°C° 0 mm 5 mps 755 mmHg 60%
    13:00 +5°C° 0 mm 5 mps 754 mmHg 60%
    14:00 +5°C° 0 mm 5 mps 754 mmHg 64%
    15:00 +3°C° 0 mm 5 mps 754 mmHg 68%
    16:00 +4°C° 0 mm 4 mps 754 mmHg 72%
    17:00 +3°C° 0 mm 4 mps 755 mmHg 77%
    18:00 +2°C° 0 mm 3 mps 756 mmHg 81%
    19:00 +1°C° 0 mm 3 mps 756 mmHg 86%
    20:00 0°C° 0 mm 3 mps 756 mmHg 87%
    21:00 0°C° 0 mm 3 mps 757 mmHg 88%
    22:00 0°C° 0 mm 3 mps 757 mmHg 89%
    23:00 0°C° 0 mm 3 mps 757 mmHg 89%

    21 January, Sunday

    Time Temperature Precipitation Wind Pressure Humidity
    00:00 -1°C° 0 mm 3 mps 757 mmHg 90%
    01:00 -1°C° 0 mm 3 mps 757 mmHg 90%
    02:00 -1°C° 0 mm 3 mps 757 mmHg 90%
    03:00 -1°C° 0 mm 3 mps 757 mmHg 90%
    04:00 -1°C° 0 mm 3 mps 758 mmHg 90%
    05:00 -2°C° 0 mm 3 mps 758 mmHg 90%
    06:00 -2°C° 0 mm 3 mps 758 mmHg 90%
    07:00 -2°C° 0 mm 3 mps 758 mmHg 90%
    08:00 0°C° 0 mm 3 mps 759 mmHg 85%
    09:00 +1°C° 0 mm 3 mps 759 mmHg 80%
    10:00 +2°C° 0 mm 3 mps 759 mmHg 76%
    11:00 +3°C° 0 mm 3 mps 759 mmHg 73%
    12:00 +5°C° 0 mm 3 mps 759 mmHg 71%
    13:00 +7°C° 0 mm 3 mps 758 mmHg 69%
    14:00 +5°C° 0 mm 3 mps 758 mmHg 74%
    15:00 +5°C° 0 mm 3 mps 758 mmHg 79%
    16:00 +6°C° 0 mm 2 mps 759 mmHg 84%
    17:00 +5°C° 0 mm 2 mps 759 mmHg 87%
    18:00 +4°C° 0 mm 2 mps 759 mmHg 90%
    19:00 +3°C° 0 mm 2 mps 760 mmHg 93%
    20:00 +4°C° 0 mm 1 mps 760 mmHg 94%
    21:00 +4°C° 0 mm 1 mps 760 mmHg 94%
    22:00 +4°C° 0 mm 1 mps 760 mmHg 94%
    23:00 +4°C° 0 mm 1 mps 760 mmHg 95%

    22 January, Monday

    Time Temperature Precipitation Wind Pressure Humidity
    00:00 +4°C° 0 mm 1 mps 760 mmHg 95%
    01:00 +3°C° 0 mm 0 mps 760 mmHg 95%
    02:00 +3°C° 0 mm 0 mps 760 mmHg 95%
    03:00 +3°C° 0 mm 0 mps 760 mmHg 96%
    04:00 +4°C° 0 mm 1 mps 761 mmHg 96%
    05:00 +4°C° 0.2 mm 1 mps 761 mmHg 96%
    06:00 +4°C° 0.2 mm 1 mps 761 mmHg 97%
    07:00 +3°C° 0.2 mm 2 mps 761 mmHg 97%
    08:00 +3°C° 0.2 mm 2 mps 761 mmHg 97%
    09:00 +3°C° 0.2 mm 2 mps 762 mmHg 97%
    10:00 +4°C° 0.2 mm 2 mps 762 mmHg 96%
    11:00 +4°C° 0 mm 3 mps 761 mmHg 94%
    12:00 +5°C° 0 mm 3 mps 760 mmHg 91%
    13:00 +5°C° 0 mm 3 mps 760 mmHg 88%
    14:00 +7°C° 0 mm 3 mps 759 mmHg 88%
    15:00 +6°C° 0 mm 4 mps 759 mmHg 88%
    16:00 +6°C° 0 mm 4 mps 758 mmHg 88%
    17:00 +6°C° 0 mm 4 mps 758 mmHg 90%
    18:00 +6°C° 0 mm 4 mps 758 mmHg 93%
    19:00 +6°C° 0 mm 4 mps 758 mmHg 95%
    20:00 +6°C° 0 mm 4 mps 757 mmHg 95%
    21:00 +6°C° 0 mm 4 mps 756 mmHg 95%
    22:00 +6°C° 0 mm 4 mps 756 mmHg 95%
    23:00 +6°C° 0.3 mm 4 mps 754 mmHg 95%
    Show more